QPF
0.00 0.01 0.01 0.01 0.00 0.00 0.00 0.01 0.00 0.00 0.00 0.01 0.01 0.01 0.02 0.02 0.03 0.05 0.05 0.05 0.04 0.02 0.01 0.01 0.02 0.02 0.02 0.01 0.01 0.01 0.02 0.01 0.02 0.02 0.02 0.02 0.02 0.02 0.01 0.01 0.01 0.01 0.01
0.00 0.01 0.01 0.00 0.00 0.00 0.00 0.00 0.00 0.00 0.00 0.00 0.00 0.01 0.02 0.02 0.03 0.04 0.05 0.05 0.05 0.03 0.02 0.02 0.01 0.02 0.02 0.01 0.01 0.01 0.02 0.01 0.01 0.01 0.01 0.01 0.01 0.02 0.02 0.02 0.02 0.02 0.01
0.00 0.01 0.01 0.01 0.00 0.00 0.00 0.00 0.00 0.00 0.00 0.00 0.00 0.01 0.01 0.01 0.02 0.03 0.04 0.04 0.05 0.05 0.03 0.02 0.01 0.01 0.02 0.02 0.01 0.01 0.01 0.01 0.00 0.00 0.01 0.02 0.03 0.02 0.02 0.02 0.01 0.02 0.02
0.00 0.00 0.01 0.01 0.01 0.00 0.00 0.00 0.00 0.00 0.00 0.00 0.01 0.01 0.01 0.01 0.03 0.03 0.04 0.04 0.05 0.05 0.04 0.02 0.01 0.01 0.02 0.02 0.02 0.01 0.01 0.01 0.00 0.00 0.01 0.02 0.03 0.02 0.01 0.01 0.01 0.02 0.02
0.00 0.00 0.01 0.01 0.01 0.00 0.00 0.00 0.00 0.00 0.00 0.01 0.01 0.00 0.00 0.01 0.02 0.03 0.04 0.05 0.05 0.05 0.07 0.04 0.02 0.01 0.02 0.02 0.02 0.01 0.01 0.01 0.00 0.00 0.01 0.02 0.03 0.03 0.02 0.02 0.02 0.02 0.02
0.00 0.00 0.01 0.02 0.01 0.01 0.01 0.01 0.00 0.00 0.00 0.01 0.01 0.01 0.01 0.01 0.01 0.03 0.03 0.03 0.03 0.04 0.05 0.07 0.04 0.03 0.02 0.01 0.01 0.01 0.01 0.00 0.00 0.01 0.01 0.02 0.02 0.03 0.02 0.03 0.03 0.04 0.03
0.00 0.00 0.01 0.01 0.01 0.01 0.01 0.01 0.01 0.01 0.01 0.01 0.01 0.01 0.01 0.01 0.01 0.02 0.02 0.03 0.03 0.04 0.05 0.05 0.05 0.04 0.03 0.01 0.00 0.00 0.00 0.00 0.00 0.01 0.02 0.02 0.02 0.02 0.02 0.03 0.04 0.04 0.04
0.01 0.00 0.00 0.01 0.01 0.02 0.02 0.01 0.01 0.01 0.01 0.01 0.01 0.01 0.02 0.02 0.01 0.02 0.02 0.02 0.03 0.03 0.04 0.05 0.05 0.04 0.03 0.01 0.00 0.00 0.00 0.01 0.02 0.01 0.02 0.04 0.03 0.02 0.02 0.02 0.02 0.03 0.04
0.01 0.01 0.00 0.00 0.01 0.01 0.01 0.01 0.01 0.01 0.01 0.01 0.01 0.01 0.01 0.01 0.01 0.02 0.02 0.02 0.02 0.02 0.02 0.03 0.04 0.05 0.04 0.02 0.01 0.00 0.00 0.01 0.01 0.01 0.03 0.05 0.03 0.03 0.02 0.02 0.02 0.03 0.04
0.02 0.02 0.01 0.00 0.01 0.01 0.01 0.01 0.00 0.00 0.01 0.01 0.01 0.00 0.00 0.01 0.01 0.01 0.01 0.01 0.01 0.02 0.03 0.02 0.02 0.03 0.03 0.03 0.01 0.00 0.00 0.00 0.00 0.01 0.03 0.03 0.04 0.05 0.03 0.02 0.02 0.02 0.03
0.02 0.02 0.02 0.01 0.01 0.01 0.02 0.01 0.00 0.00 0.00 0.00 0.01 0.00 0.00 0.01 0.01 0.01 0.01 0.01 0.01 0.02 0.03 0.03 0.03 0.03 0.02 0.02 0.01 0.01 0.01 0.01 0.01 0.00 0.01 0.02 0.04 0.04 0.03 0.02 0.01 0.01 0.02
0.02 0.02 0.02 0.02 0.01 0.01 0.01 0.01 0.01 0.00 0.00 0.00 0.01 0.01 0.01 0.02 0.03 0.02 0.01 0.00 0.00 0.01 0.03 0.04 0.03 0.03 0.03 0.02 0.01 0.01 0.01 0.02 0.01 0.01 0.01 0.02 0.02 0.02 0.02 0.02 0.02 0.01 0.02
0.02 0.02 0.02 0.02 0.02 0.01 0.01 0.01 0.01 0.01 0.01 0.01 0.01 0.02 0.02 0.03 0.03 0.04 0.03 0.01 0.01 0.01 0.03 0.04 0.04 0.04 0.03 0.02 0.01 0.01 0.01 0.02 0.02 0.02 0.01 0.01 0.01 0.02 0.02 0.02 0.03 0.03 0.02
0.02 0.02 0.03 0.02 0.02 0.01 0.02 0.02 0.01 0.01 0.01 0.01 0.01 0.01 0.02 0.03 0.02 0.03 0.03 0.02 0.02 0.02 0.03 0.05 0.05 0.04 0.03 0.02 0.01 0.00 0.01 0.01 0.02 0.03 0.03 0.02 0.01 0.01 0.01 0.02 0.02 0.04 0.04
0.02 0.02 0.02 0.03 0.02 0.02 0.02 0.02 0.01 0.01 0.00 0.00 0.01 0.01 0.02 0.02 0.02 0.02 0.03 0.03 0.02 0.03 0.03 0.05 0.07 0.05 0.03 0.02 0.01 0.00 0.00 0.01 0.01 0.01 0.02 0.02 0.02 0.01 0.01 0.01 0.02 0.03 0.04
0.02 0.02 0.02 0.02 0.02 0.02 0.02 0.02 0.01 0.01 0.01 0.01 0.01 0.01 0.02 0.02 0.02 0.02 0.02 0.03 0.03 0.04 0.04 0.05 0.07 0.06 0.04 0.01 0.00 0.00 0.00 0.00 0.01 0.01 0.02 0.02 0.02 0.01 0.01 0.01 0.01 0.02 0.04
0.01 0.02 0.03 0.03 0.03 0.03 0.02 0.02 0.01 0.01 0.01 0.01 0.01 0.02 0.02 0.02 0.03 0.02 0.02 0.02 0.02 0.03 0.05 0.06 0.07 0.07 0.05 0.02 0.00 0.00 0.00 0.01 0.01 0.02 0.02 0.02 0.02 0.02 0.01 0.01 0.01 0.01 0.02
0.01 0.01 0.02 0.03 0.04 0.03 0.03 0.03 0.02 0.01 0.01 0.01 0.01 0.01 0.02 0.02 0.03 0.03 0.02 0.02 0.02 0.02 0.03 0.05 0.07 0.06 0.05 0.03 0.01 0.00 0.00 0.01 0.02 0.02 0.02 0.03 0.03 0.03 0.02 0.02 0.02 0.02 0.02
0.01 0.01 0.01 0.02 0.03 0.03 0.03 0.03 0.02 0.02 0.01 0.01 0.01 0.01 0.02 0.03 0.03 0.03 0.03 0.02 0.01 0.02 0.02 0.03 0.06 0.06 0.04 0.04 0.02 0.01 0.01 0.01 0.02 0.02 0.02 0.02 0.03 0.03 0.03 0.03 0.02 0.01 0.02
0.01 0.01 0.01 0.01 0.02 0.03 0.03 0.03 0.03 0.02 0.01 0.01 0.01 0.01 0.02 0.04 0.05 0.05 0.04 0.03 0.03 0.02 0.02 0.02 0.05 0.06 0.04 0.03 0.02 0.01 0.01 0.02 0.03 0.03 0.02 0.02 0.02 0.02 0.02 0.02 0.02 0.01 0.01
0.01 0.01 0.01 0.01 0.02 0.02 0.03 0.03 0.03 0.03 0.02 0.01 0.01 0.01 0.02 0.03 0.06 0.07 0.06 0.04 0.04 0.03 0.02 0.02 0.03 0.06 0.05 0.03 0.03 0.02 0.02 0.03 0.03 0.03 0.03 0.02 0.02 0.02 0.02 0.02 0.02 0.02 0.01
0.00 0.01 0.01 0.01 0.01 0.02 0.03 0.03 0.03 0.03 0.03 0.02 0.02 0.02 0.02 0.04 0.07 0.09 0.08 0.06 0.05 0.04 0.02 0.02 0.02 0.04 0.05 0.03 0.03 0.03 0.03 0.04 0.05 0.04 0.03 0.03 0.02 0.02 0.01 0.01 0.02 0.01 0.01
0.00 0.00 0.00 0.01 0.01 0.02 0.03 0.04 0.04 0.04 0.03 0.03 0.03 0.02 0.03 0.04 0.08 0.09 0.08 0.06 0.06 0.04 0.03 0.02 0.02 0.03 0.05 0.05 0.03 0.02 0.03 0.04 0.05 0.05 0.03 0.02 0.02 0.02 0.01 0.01 0.01 0.01 0.02
0.00 0.00 0.00 0.00 0.02 0.02 0.03 0.04 0.04 0.05 0.04 0.04 0.04 0.03 0.03 0.03 0.06 0.08 0.08 0.07 0.05 0.04 0.03 0.03 0.03 0.03 0.03 0.05 0.05 0.02 0.02 0.03 0.03 0.05 0.04 0.03 0.02 0.01 0.02 0.02 0.01 0.01 0.01
0.00 0.00 0.00 0.00 0.01 0.02 0.02 0.03 0.03 0.04 0.04 0.04 0.05 0.04 0.03 0.03 0.03 0.05 0.06 0.05 0.04 0.04 0.04 0.04 0.04 0.04 0.03 0.04 0.05 0.04 0.03 0.03 0.02 0.04 0.05 0.03 0.02 0.01 0.01 0.01 0.01 0.01 0.01
0.00 0.00 0.00 0.00 0.01 0.01 0.01 0.02 0.02 0.02 0.03 0.03 0.05 0.04 0.03 0.03 0.03 0.04 0.05 0.05 0.04 0.04 0.05 0.05 0.04 0.04 0.04 0.03 0.04 0.05 0.05 0.04 0.03 0.03 0.04 0.03 0.02 0.02 0.01 0.01 0.01 0.00 0.00
MSLP
1014.79 1014.94 1014.78 1014.42 1013.96 1013.51 1013.12 1012.81 1012.55 1012.28 1011.97 1011.58 1011.12 1010.62 1010.13 1009.70 1009.38 1009.18 1009.10 1009.12 1009.22 1009.38 1009.57 1009.80 1010.06 1010.35 1010.68 1011.03 1011.39 1011.74 1012.07 1012.38 1012.67 1012.97 1013.27 1013.58 1013.91 1014.23 1014.53 1014.79 1015.00 1015.15 1015.27
1014.98 1015.05 1014.86 1014.51 1014.11 1013.73 1013.42 1013.17 1012.95 1012.72 1012.42 1012.04 1011.59 1011.10 1010.61 1010.17 1009.82 1009.58 1009.44 1009.38 1009.40 1009.47 1009.60 1009.79 1010.04 1010.35 1010.71 1011.10 1011.50 1011.89 1012.24 1012.57 1012.87 1013.16 1013.47 1013.79 1014.13 1014.47 1014.79 1015.07 1015.29 1015.46 1015.59
1015.18 1015.16 1014.94 1014.61 1014.26 1013.94 1013.69 1013.49 1013.30 1013.10 1012.82 1012.46 1012.03 1011.56 1011.09 1010.65 1010.28 1009.98 1009.76 1009.61 1009.53 1009.51 1009.56 1009.71 1009.94 1010.28 1010.69 1011.14 1011.60 1012.04 1012.44 1012.79 1013.10 1013.39 1013.69 1014.01 1014.35 1014.70 1015.04 1015.35 1015.60 1015.79 1015.94
1015.34 1015.27 1015.04 1014.73 1014.42 1014.15 1013.94 1013.77 1013.60 1013.41 1013.15 1012.81 1012.42 1011.98 1011.54 1011.11 1010.72 1010.38 1010.08 1009.83 1009.64 1009.52 1009.50 1009.60 1009.83 1010.19 1010.65 1011.18 1011.72 1012.23 1012.67 1013.05 1013.37 1013.65 1013.94 1014.24 1014.58 1014.93 1015.29 1015.62 1015.90 1016.12 1016.30
1015.43 1015.33 1015.13 1014.86 1014.60 1014.37 1014.18 1014.02 1013.86 1013.66 1013.41 1013.10 1012.74 1012.35 1011.95 1011.55 1011.16 1010.78 1010.42 1010.08 1009.78 1009.57 1009.47 1009.52 1009.74 1010.13 1010.65 1011.25 1011.86 1012.44 1012.93 1013.34 1013.66 1013.94 1014.21 1014.49 1014.81 1015.16 1015.52 1015.87 1016.19 1016.44 1016.65
1015.41 1015.35 1015.20 1015.00 1014.80 1014.61 1014.44 1014.28 1014.10 1013.89 1013.63 1013.34 1013.02 1012.67 1012.32 1011.96 1011.59 1011.19 1010.78 1010.38 1010.00 1009.70 1009.53 1009.54 1009.74 1010.14 1010.70 1011.35 1012.03 1012.66 1013.20 1013.63 1013.97 1014.23 1014.48 1014.74 1015.04 1015.38 1015.75 1016.11 1016.45 1016.74 1016.98
1015.30 1015.32 1015.26 1015.16 1015.02 1014.88 1014.72 1014.54 1014.33 1014.10 1013.84 1013.55 1013.26 1012.97 1012.67 1012.36 1012.02 1011.64 1011.21 1010.75 1010.31 1009.94 1009.71 1009.67 1009.84 1010.24 1010.81 1011.49 1012.20 1012.87 1013.44 1013.90 1014.24 1014.51 1014.74 1014.99 1015.27 1015.60 1015.96 1016.34 1016.70 1017.02 1017.29
1015.14 1015.27 1015.32 1015.32 1015.26 1015.16 1015.01 1014.82 1014.58 1014.32 1014.05 1013.77 1013.51 1013.27 1013.03 1012.77 1012.48 1012.11 1011.68 1011.20 1010.72 1010.30 1010.01 1009.91 1010.03 1010.39 1010.94 1011.61 1012.33 1013.02 1013.61 1014.09 1014.46 1014.73 1014.98 1015.22 1015.50 1015.82 1016.18 1016.56 1016.94 1017.28 1017.58
1014.97 1015.21 1015.38 1015.47 1015.49 1015.43 1015.29 1015.09 1014.84 1014.56 1014.28 1014.02 1013.78 1013.58 1013.40 1013.20 1012.94 1012.62 1012.20 1011.71 1011.20 1010.74 1010.38 1010.21 1010.27 1010.56 1011.05 1011.69 1012.39 1013.07 1013.69 1014.19 1014.59 1014.90 1015.17 1015.44 1015.73 1016.06 1016.42 1016.81 1017.19 1017.54 1017.86
1014.83 1015.17 1015.44 1015.61 1015.69 1015.67 1015.55 1015.35 1015.09 1014.81 1014.53 1014.28 1014.07 1013.91 1013.77 1013.62 1013.42 1013.12 1012.73 1012.24 1011.71 1011.20 1010.78 1010.54 1010.50 1010.70 1011.12 1011.69 1012.35 1013.02 1013.65 1014.20 1014.65 1015.01 1015.34 1015.65 1015.97 1016.32 1016.70 1017.09 1017.47 1017.83 1018.15
1014.75 1015.15 1015.48 1015.71 1015.83 1015.84 1015.74 1015.55 1015.30 1015.03 1014.76 1014.53 1014.36 1014.23 1014.14 1014.02 1013.86 1013.60 1013.22 1012.74 1012.20 1011.65 1011.17 1010.84 1010.71 1010.80 1011.12 1011.61 1012.22 1012.88 1013.52 1014.11 1014.63 1015.08 1015.47 1015.85 1016.22 1016.61 1017.01 1017.41 1017.79 1018.15 1018.46
1014.73 1015.16 1015.51 1015.76 1015.90 1015.93 1015.85 1015.68 1015.45 1015.20 1014.96 1014.76 1014.61 1014.52 1014.46 1014.38 1014.24 1014.01 1013.66 1013.19 1012.63 1012.05 1011.51 1011.10 1010.86 1010.85 1011.06 1011.47 1012.02 1012.66 1013.32 1013.97 1014.56 1015.10 1015.59 1016.04 1016.48 1016.91 1017.33 1017.74 1018.13 1018.48 1018.79
1014.74 1015.17 1015.51 1015.76 1015.90 1015.93 1015.86 1015.72 1015.52 1015.30 1015.09 1014.92 1014.81 1014.74 1014.70 1014.65 1014.55 1014.34 1014.02 1013.56 1013.00 1012.39 1011.81 1011.32 1010.99 1010.87 1010.98 1011.30 1011.80 1012.41 1013.09 1013.79 1014.47 1015.10 1015.68 1016.22 1016.72 1017.19 1017.64 1018.06 1018.45 1018.80 1019.11
1014.76 1015.16 1015.48 1015.70 1015.83 1015.86 1015.81 1015.69 1015.52 1015.33 1015.15 1015.01 1014.92 1014.88 1014.86 1014.83 1014.75 1014.58 1014.28 1013.85 1013.31 1012.70 1012.08 1011.53 1011.11 1010.90 1010.91 1011.15 1011.59 1012.18 1012.88 1013.62 1014.36 1015.08 1015.74 1016.35 1016.91 1017.42 1017.89 1018.33 1018.72 1019.08 1019.39
1014.75 1015.11 1015.41 1015.61 1015.73 1015.76 1015.72 1015.62 1015.47 1015.31 1015.15 1015.03 1014.95 1014.92 1014.91 1014.91 1014.86 1014.73 1014.47 1014.08 1013.57 1012.97 1012.33 1011.74 1011.27 1010.97 1010.90 1011.06 1011.44 1012.00 1012.70 1013.47 1014.27 1015.04 1015.77 1016.43 1017.03 1017.57 1018.06 1018.50 1018.91 1019.28 1019.60
1014.66 1015.01 1015.29 1015.48 1015.60 1015.64 1015.62 1015.53 1015.41 1015.26 1015.11 1014.99 1014.91 1014.88 1014.88 1014.89 1014.87 1014.78 1014.58 1014.25 1013.78 1013.21 1012.59 1011.98 1011.46 1011.10 1010.96 1011.05 1011.37 1011.90 1012.58 1013.37 1014.19 1015.00 1015.76 1016.46 1017.08 1017.63 1018.13 1018.58 1019.00 1019.38 1019.73
1014.47 1014.83 1015.11 1015.32 1015.45 1015.52 1015.52 1015.46 1015.35 1015.21 1015.06 1014.92 1014.82 1014.77 1014.77 1014.79 1014.80 1014.76 1014.62 1014.35 1013.96 1013.44 1012.84 1012.24 1011.69 1011.28 1011.08 1011.10 1011.37 1011.86 1012.52 1013.30 1014.14 1014.97 1015.75 1016.46 1017.09 1017.65 1018.14 1018.60 1019.02 1019.42 1019.79
1014.18 1014.55 1014.86 1015.09 1015.27 1015.38 1015.42 1015.39 1015.30 1015.16 1015.00 1014.84 1014.71 1014.62 1014.60 1014.62 1014.65 1014.66 1014.58 1014.39 1014.07 1013.61 1013.06 1012.47 1011.92 1011.48 1011.23 1011.20 1011.42 1011.87 1012.51 1013.28 1014.12 1014.96 1015.75 1016.47 1017.10 1017.66 1018.15 1018.60 1019.02 1019.43 1019.83
1013.76 1014.15 1014.49 1014.77 1015.00 1015.16 1015.26 1015.28 1015.22 1015.09 1014.92 1014.73 1014.56 1014.44 1014.39 1014.40 1014.44 1014.48 1014.47 1014.35 1014.10 1013.71 1013.21 1012.65 1012.10 1011.65 1011.36 1011.30 1011.48 1011.90 1012.52 1013.29 1014.14 1014.99 1015.80 1016.54 1017.18 1017.73 1018.22 1018.66 1019.08 1019.49 1019.90
1013.22 1013.61 1013.97 1014.30 1014.59 1014.83 1015.00 1015.08 1015.07 1014.97 1014.80 1014.59 1014.39 1014.23 1014.14 1014.13 1014.17 1014.23 1014.26 1014.20 1014.01 1013.69 1013.25 1012.72 1012.19 1011.74 1011.43 1011.35 1011.51 1011.91 1012.54 1013.32 1014.19 1015.08 1015.93 1016.70 1017.36 1017.93 1018.41 1018.85 1019.26 1019.66 1020.05
1012.56 1012.93 1013.30 1013.65 1013.99 1014.31 1014.56 1014.73 1014.79 1014.74 1014.59 1014.38 1014.16 1013.97 1013.85 1013.81 1013.84 1013.90 1013.95 1013.94 1013.81 1013.54 1013.14 1012.66 1012.15 1011.70 1011.40 1011.31 1011.46 1011.88 1012.52 1013.34 1014.26 1015.22 1016.13 1016.95 1017.66 1018.26 1018.77 1019.20 1019.59 1019.96 1020.33
1011.82 1012.13 1012.46 1012.82 1013.20 1013.58 1013.92 1014.18 1014.33 1014.36 1014.27 1014.09 1013.87 1013.66 1013.51 1013.44 1013.44 1013.50 1013.56 1013.56 1013.47 1013.25 1012.90 1012.45 1011.97 1011.54 1011.24 1011.16 1011.32 1011.76 1012.44 1013.31 1014.31 1015.35 1016.36 1017.27 1018.06 1018.72 1019.26 1019.70 1020.08 1020.42 1020.74
1011.05 1011.26 1011.52 1011.85 1012.24 1012.66 1013.07 1013.43 1013.69 1013.81 1013.80 1013.67 1013.48 1013.28 1013.11 1013.01 1012.99 1013.03 1013.08 1013.10 1013.02 1012.83 1012.52 1012.10 1011.65 1011.24 1010.96 1010.88 1011.06 1011.52 1012.25 1013.19 1014.28 1015.42 1016.55 1017.58 1018.48 1019.23 1019.82 1020.29 1020.67 1020.98 1021.26
1010.31 1010.40 1010.56 1010.81 1011.17 1011.61 1012.08 1012.52 1012.88 1013.11 1013.19 1013.14 1012.99 1012.81 1012.64 1012.53 1012.48 1012.50 1012.54 1012.56 1012.50 1012.33 1012.04 1011.66 1011.22 1010.83 1010.55 1010.48 1010.67 1011.15 1011.92 1012.93 1014.10 1015.36 1016.62 1017.78 1018.81 1019.67 1020.35 1020.88 1021.27 1021.57 1021.82
1009.68 1009.63 1009.66 1009.81 1010.10 1010.52 1011.01 1011.51 1011.95 1012.28 1012.46 1012.49 1012.41 1012.27 1012.11 1012.00 1011.94 1011.94 1011.96 1011.98 1011.92 1011.77 1011.50 1011.14 1010.72 1010.33 1010.06 1009.98 1010.17 1010.66 1011.45 1012.50 1013.75 1015.11 1016.48 1017.79 1018.96 1019.95 1020.75 1021.35 1021.80 1022.11 1022.34
1009.21 1009.03 1008.91 1008.93 1009.13 1009.48 1009.95 1010.48 1010.97 1011.37 1011.64 1011.75 1011.74 1011.65 1011.52 1011.41 1011.35 1011.34 1011.36 1011.37 1011.32 1011.18 1010.93 1010.58 1010.18 1009.79 1009.51 1009.41 1009.58 1010.05 1010.83 1011.90 1013.20 1014.63 1016.12 1017.55 1018.86 1019.99 1020.92 1021.64 1022.16 1022.53 1022.78
Thickness
5720 5720 5718 5717 5717 5717 5717 5717 5717 5717 5717 5717 5717 5717 5717 5718 5718 5718 5719 5719 5719 5720 5721 5721 5720 5721 5721 5721 5721 5721 5721 5721 5722 5722 5723 5723 5723 5723 5723 5723 5723 5722 5722
5719 5717 5715 5714 5713 5713 5713 5713 5713 5712 5712 5712 5713 5713 5713 5713 5713 5714 5714 5715 5715 5715 5716 5716 5716 5716 5716 5716 5716 5716 5717 5717 5718 5718 5719 5719 5720 5720 5720 5719 5719 5719 5719
5716 5713 5711 5710 5709 5709 5708 5708 5708 5708 5708 5708 5708 5708 5708 5709 5709 5709 5710 5710 5710 5710 5711 5711 5711 5711 5711 5712 5711 5712 5712 5713 5713 5714 5715 5716 5716 5716 5716 5715 5715 5715 5715
5712 5708 5706 5705 5705 5704 5704 5703 5703 5703 5703 5703 5703 5703 5704 5704 5704 5704 5705 5705 5705 5705 5705 5705 5706 5706 5706 5706 5707 5707 5707 5708 5709 5710 5711 5712 5712 5712 5712 5712 5711 5711 5711
5706 5703 5701 5700 5699 5699 5699 5698 5698 5698 5698 5698 5698 5698 5699 5699 5699 5699 5699 5699 5700 5700 5699 5700 5700 5700 5700 5701 5701 5701 5702 5703 5704 5705 5707 5707 5707 5708 5707 5707 5707 5707 5706
5701 5698 5695 5694 5694 5693 5693 5693 5693 5693 5692 5692 5693 5693 5693 5693 5693 5693 5693 5693 5694 5694 5694 5694 5694 5694 5695 5695 5695 5696 5696 5698 5699 5700 5701 5702 5702 5702 5702 5702 5702 5702 5702
5695 5692 5690 5689 5688 5687 5687 5687 5687 5687 5687 5687 5687 5687 5687 5687 5687 5687 5687 5687 5687 5687 5687 5688 5688 5688 5689 5689 5689 5690 5691 5692 5693 5695 5696 5696 5696 5697 5697 5697 5697 5697 5697
5689 5686 5684 5682 5682 5681 5681 5681 5681 5681 5681 5681 5681 5681 5681 5681 5681 5681 5681 5681 5681 5681 5681 5681 5682 5682 5682 5682 5683 5683 5685 5686 5688 5689 5690 5690 5691 5691 5691 5691 5691 5691 5691
5682 5680 5678 5676 5675 5675 5675 5675 5675 5675 5675 5674 5675 5674 5674 5674 5674 5675 5674 5674 5674 5674 5674 5674 5675 5675 5675 5675 5676 5677 5678 5680 5681 5683 5683 5684 5685 5685 5686 5686 5686 5686 5686
5674 5673 5671 5670 5669 5669 5668 5668 5668 5668 5668 5668 5668 5668 5668 5668 5668 5668 5667 5667 5667 5667 5667 5667 5667 5667 5668 5668 5669 5670 5672 5673 5675 5676 5676 5677 5678 5679 5679 5679 5679 5679 5680
5664 5664 5664 5663 5662 5661 5661 5661 5661 5661 5661 5660 5660 5660 5661 5661 5660 5660 5660 5660 5660 5660 5660 5660 5660 5660 5660 5661 5662 5663 5664 5666 5668 5669 5669 5670 5671 5672 5673 5673 5673 5673 5673
5655 5655 5655 5655 5654 5654 5654 5653 5653 5653 5653 5653 5653 5653 5653 5653 5653 5653 5653 5652 5652 5652 5651 5652 5652 5652 5652 5653 5654 5656 5657 5659 5660 5661 5662 5663 5664 5665 5666 5666 5666 5666 5666
5648 5647 5647 5646 5646 5646 5646 5645 5645 5645 5645 5645 5645 5645 5645 5645 5645 5644 5644 5644 5643 5643 5643 5643 5643 5644 5645 5645 5647 5648 5650 5651 5652 5653 5654 5655 5656 5657 5658 5658 5659 5659 5659
5640 5639 5638 5638 5637 5637 5637 5637 5637 5637 5637 5637 5637 5637 5637 5637 5636 5636 5636 5635 5635 5635 5635 5636 5636 5636 5637 5638 5639 5640 5642 5643 5645 5646 5646 5647 5648 5649 5650 5651 5651 5652 5652
5632 5631 5630 5629 5628 5628 5628 5628 5628 5628 5628 5629 5628 5628 5628 5628 5628 5628 5627 5627 5627 5627 5627 5628 5628 5629 5629 5630 5631 5633 5634 5635 5637 5638 5638 5639 5640 5640 5641 5642 5643 5643 5644
5624 5623 5621 5620 5619 5619 5618 5619 5619 5619 5618 5619 5619 5618 5619 5619 5619 5619 5618 5618 5618 5619 5619 5619 5620 5621 5622 5622 5623 5624 5626 5626 5628 5629 5630 5630 5631 5631 5632 5633 5634 5634 5635
5616 5615 5613 5611 5610 5609 5609 5609 5609 5609 5609 5609 5608 5608 5609 5609 5609 5608 5608 5608 5609 5609 5610 5610 5611 5612 5613 5614 5615 5616 5617 5618 5619 5620 5621 5622 5622 5622 5623 5624 5624 5625 5626
5607 5606 5604 5603 5601 5599 5599 5599 5599 5599 5599 5599 5598 5598 5598 5598 5598 5598 5598 5598 5599 5599 5600 5600 5601 5602 5602 5603 5605 5607 5608 5609 5610 5611 5612 5613 5613 5613 5613 5614 5615 5616 5616
5599 5597 5596 5594 5592 5591 5590 5589 5589 5589 5589 5588 5588 5588 5588 5588 5588 5588 5588 5588 5589 5589 5590 5590 5591 5591 5592 5593 5595 5597 5598 5600 5601 5602 5603 5604 5604 5604 5604 5604 5605 5606 5607
5591 5589 5587 5585 5583 5582 5580 5579 5579 5579 5579 5579 5579 5578 5578 5577 5577 5577 5577 5578 5579 5579 5579 5580 5580 5581 5582 5582 5585 5587 5588 5590 5592 5593 5594 5595 5595 5595 5595 5595 5596 5596 5597
5580 5579 5577 5575 5574 5572 5570 5569 5569 5569 5569 5569 5569 5569 5568 5567 5567 5567 5567 5568 5569 5569 5570 5570 5570 5571 5571 5572 5572 5575 5578 5581 5584 5585 5585 5585 5586 5586 5586 5587 5587 5587 5587
5570 5568 5567 5566 5565 5563 5562 5561 5560 5560 5560 5560 5560 5559 5558 5558 5557 5557 5557 5558 5559 5560 5560 5560 5560 5560 5560 5561 5561 5562 5565 5570 5574 5576 5575 5575 5575 5575 5576 5578 5578 5578 5578
5561 5560 5559 5558 5557 5554 5553 5552 5551 5551 5551 5550 5549 5549 5549 5549 5548 5548 5548 5549 5549 5551 5552 5551 5550 5549 5549 5551 5552 5551 5552 5555 5559 5564 5565 5566 5566 5567 5567 5568 5568 5569 5569
5552 5551 5550 5549 5548 5546 5545 5543 5542 5541 5541 5541 5540 5539 5539 5540 5539 5539 5539 5539 5540 5542 5542 5541 5541 5541 5540 5541 5542 5543 5544 5546 5546 5549 5554 5555 5556 5556 5557 5558 5559 5560 5560
5544 5542 5541 5540 5538 5537 5536 5535 5533 5532 5532 5531 5530 5529 5530 5530 5530 5530 5530 5531 5531 5533 5532 5532 5532 5532 5532 5532 5534 5534 5535 5536 5537 5537 5539 5543 5544 5546 5547 5548 5550 5550 5551
5535 5533 5532 5531 5529 5528 5527 5526 5524 5523 5523 5522 5521 5520 5520 5521 5522 5521 5522 5522 5522 5524 5524 5524 5524 5524 5523 5524 5526 5526 5527 5528 5529 5528 5528 5530 5532 5535 5537 5539 5540 5540 5541